ECMWFFLT2_925_thetae_024.txt.gz
Theta_e
337 337 339 340 338 337 337 337 337 336 336 336 337 334 329 328 331 331 332 333 333 334 333 332 332 331 330 329 328 327 328 329 329 330 330 330 328 326 325 325 325 325 325 324 325 326 325 325 326 328 329 331 332 332 333 334 332 331 330 328 328 328
338 338 339 339 338 338 338 338 337 336 337 336 337 335 329 329 331 331 333 333 334 335 334 334 333 331 330 330 329 328 329 328 328 328 329 329 329 328 326 326 326 326 325 325 325 326 326 325 326 327 328 331 332 331 333 333 332 332 330 329 328 328
339 338 338 339 338 339 339 338 337 337 338 336 336 333 330 331 332 332 333 334 335 335 334 335 334 332 330 330 331 330 329 328 328 327 326 327 328 329 328 327 327 327 326 326 325 326 325 326 326 326 328 332 332 331 332 333 333 332 330 329 328 327
336 336 337 338 338 340 339 338 337 338 337 336 335 332 330 332 333 333 334 334 334 335 336 336 335 334 332 331 331 331 330 329 328 327 325 325 325 327 329 328 327 327 327 325 324 324 324 325 326 326 329 332 332 331 332 332 332 331 330 329 327 326
332 335 337 338 339 339 339 338 338 338 337 335 334 332 331 332 334 334 334 334 334 334 336 336 336 335 333 331 331 331 329 329 328 326 325 323 322 323 325 327 328 327 327 325 324 323 323 325 325 326 328 331 332 331 331 332 331 331 330 329 327 325
333 337 338 338 339 339 339 338 338 337 335 333 333 333 332 333 333 333 333 333 333 334 336 336 335 335 335 332 332 331 329 328 326 325 324 323 322 322 324 325 327 327 327 326 324 323 324 325 325 326 327 330 332 331 331 331 331 331 330 329 327 325
335 338 339 338 338 338 338 337 336 335 333 332 332 333 333 332 333 333 332 332 332 334 335 335 333 333 335 334 332 331 329 328 326 325 324 323 323 324 326 327 326 327 327 326 325 325 327 327 326 327 327 328 330 332 332 331 331 330 330 329 327 326
336 339 339 336 336 337 336 336 334 332 332 331 332 334 333 332 333 332 331 331 331 332 332 333 332 332 335 335 333 331 330 329 328 326 326 326 325 325 328 330 329 329 328 326 326 327 329 329 328 327 327 328 329 331 332 332 331 330 330 328 327 326
335 336 335 332 334 334 333 333 333 330 330 330 331 333 333 332 332 332 332 331 331 331 330 331 332 332 333 334 333 332 331 330 330 329 327 327 328 328 328 330 330 331 330 328 327 328 329 329 329 327 327 327 328 329 331 332 331 331 330 328 327 327
333 333 331 329 331 331 330 331 330 329 329 330 331 332 333 333 332 333 332 331 331 331 330 331 333 333 333 333 333 333 332 332 331 331 330 329 330 330 330 330 331 331 330 329 328 329 330 330 330 329 327 327 328 330 330 332 332 331 330 328 327 327
333 331 330 329 329 329 329 329 329 329 329 330 331 332 332 333 334 334 332 333 333 332 331 332 332 334 334 334 334 334 333 332 332 332 332 332 331 331 331 331 331 331 331 329 329 330 330 330 329 329 328 327 327 329 329 330 332 331 330 328 327 328
334 332 330 330 329 329 329 329 329 329 329 330 331 332 332 334 335 334 334 335 335 333 333 333 333 334 335 334 334 334 334 332 332 332 332 332 332 331 331 331 331 331 331 330 330 330 330 330 329 329 328 327 326 327 328 329 331 331 330 329 329 328
336 334 332 331 330 330 331 330 331 331 331 332 332 332 333 336 335 333 334 335 335 334 334 335 334 333 333 333 334 334 334 333 332 332 332 332 332 332 331 331 331 331 331 330 330 330 330 330 330 330 329 329 327 326 327 328 331 331 331 330 330 329
339 337 334 334 334 334 335 335 335 334 334 334 334 334 335 337 336 335 336 335 335 335 335 335 334 333 332 332 333 332 332 332 332 332 332 332 332 332 331 331 331 331 331 330 330 330 330 330 329 330 329 329 328 327 326 327 329 331 331 331 330 330
340 339 338 337 337 337 339 339 338 337 337 337 336 337 336 337 335 335 336 334 334 334 334 334 334 334 332 331 332 331 330 331 332 332 333 333 332 332 332 331 331 331 330 330 330 330 330 330 330 330 329 329 328 327 326 327 328 329 330 330 330 330
340 340 341 340 340 340 340 340 340 339 339 339 339 339 337 336 335 335 335 333 334 334 334 334 333 332 331 330 330 330 330 331 331 332 333 333 332 332 331 331 331 330 330 330 329 329 329 329 329 329 329 329 329 328 327 327 327 328 329 330 331 330
342 342 342 342 341 341 340 339 339 339 339 338 338 338 337 336 335 335 334 333 334 334 333 333 332 332 330 329 329 329 330 330 331 332 332 333 332 332 331 331 330 330 330 328 328 328 329 329 329 329 329 328 328 328 328 328 328 327 329 329 330 330
342 342 342 341 341 340 339 339 338 338 337 337 337 337 337 336 335 334 334 333 333 333 333 333 332 331 330 330 329 329 330 330 331 331 332 333 332 332 332 332 330 330 329 328 328 328 329 329 329 328 328 327 327 327 328 327 328 328 328 328 329 330
342 341 341 341 340 339 338 337 336 336 337 336 335 335 335 334 333 333 332 332 332 332 333 332 332 331 330 330 329 329 330 330 331 332 332 332 332 332 332 332 331 330 329 328 328 329 329 330 329 328 327 327 326 326 326 326 327 327 327 328 328 329
341 341 341 340 338 338 337 335 335 335 335 334 333 332 332 331 331 331 331 332 331 331 332 331 331 331 330 329 330 330 330 331 331 332 332 331 331 331 331 332 331 329 329 329 330 329 329 330 329 328 327 327 327 325 325 325 325 325 326 327 327 328
340 340 339 338 337 335 334 333 334 334 333 331 331 330 330 329 330 330 331 331 331 331 331 330 330 330 330 330 330 330 331 331 331 331 331 331 331 332 332 332 331 329 330 330 330 329 329 329 328 327 327 327 327 327 326 326 324 324 325 324 325 326
339 339 338 336 334 332 331 332 332 331 330 329 329 329 328 329 329 329 330 330 331 331 330 330 330 329 329 330 330 330 330 330 331 330 330 330 332 332 331 331 330 329 329 329 329 329 329 329 327 326 325 324 327 328 327 327 326 325 324 324 324 325
338 338 337 335 331 330 331 331 330 328 328 328 328 328 327 328 328 328 328 328 329 329 329 329 329 329 329 328 329 329 329 329 329 329 329 330 331 331 330 329 329 329 329 328 327 328 328 328 326 325 324 324 327 328 328 327 327 326 325 324 323 324
337 337 335 332 329 330 330 330 329 327 327 327 327 327 327 327 326 325 324 324 324 325 326 327 326 327 328 328 328 327 328 328 329 329 329 330 330 330 330 329 329 329 328 328 327 327 327 326 327 326 326 325 324 325 328 326 326 327 326 325 324 324
336 335 333 330 328 330 329 329 328 327 327 326 327 326 325 324 324 323 323 322 321 321 322 324 324 325 327 327 325 324 326 327 328 329 329 330 329 329 329 328 329 329 328 327 327 326 326 326 327 326 325 326 325 326 328 325 324 327 326 326 326 325
334 333 330 329 329 328 328 327 327 326 326 326 325 324 323 323 322 322 322 321 319 318 320 322 323 324 325 325 322 322 326 326 327 328 328 329 329 329 329 328 328 328 327 327 326 326 325 326 327 325 325 326 327 327 327 325 325 327 326 326 327 327
332 331 329 329 328 327 326 326 326 326 326 325 324 323 322 322 322 322 321 320 319 319 320 322 322 323 323 322 321 323 326 326 326 326 326 327 327 329 329 328 328 328 327 327 327 326 325 326 327 327 326 326 325 324 324 325 326 329 329 326 323 322
330 329 328 328 327 326 326 326 326 326 325 323 322 322 322 322 322 321 320 320 320 320 321 321 321 322 322 322 321 323 326 326 325 324 324 325 326 326 327 328 328 328 328 327 327 326 326 327 327 326 327 326 326 325 325 325 325 326 330 329 323 317
329 328 327 327 326 326 325 325 325 325 323 322 322 321 321 321 320 320 320 320 319 320 320 320 321 322 322 322 321 322 325 325 324 324 324 324 324 324 325 326 326 326 327 327 326 327 327 327 326 326 326 326 326 326 325 325 325 323 324 329 327 319
328 327 326 325 324 324 324 324 324 324 324 322 321 320 320 320 319 319 319 319 319 319 319 319 320 321 322 322 321 322 324 325 324 323 323 323 323 323 323 324 325 325 326 326 326 326 326 326 326 325 325 326 325 325 324 323 323 322 318 319 321 316
326 325 324 323 323 323 323 323 323 324 324 322 320 319 319 319 319 320 319 319 318 318 318 318 318 320 321 321 321 321 323 324 323 322 322 322 322 322 322 322 323 324 324 324 324 324 325 326 326 326 326 326 323 320 318 317 318 318 315 313 315 314
325 324 324 322 322 323 322 323 323 323 323 321 319 317 317 319 319 319 319 318 318 318 318 318 319 320 321 321 320 320 322 322 321 321 321 319 319 319 321 322 321 320 319 320 321 323 324 324 325 324 323 321 317 314 314 313 312 313 312 311 313 312
324 323 322 322 323 323 323 323 323 323 321 319 318 316 318 320 320 319 319 318 318 317 317 317 318 319 318 318 317 316 317 319 319 319 317 316 316 318 320 321 319 318 317 317 317 319 320 320 320 319 317 315 314 313 313 312 311 311 311 309 309 310
323 322 323 323 323 324 323 323 323 322 320 319 316 316 317 316 317 319 318 317 318 316 315 315 316 315 314 314 313 311 310 312 313 312 312 312 315 318 319 319 318 317 316 315 315 315 315 315 314 314 314 313 312 312 311 311 312 311 309 307 307 309
322 321 322 322 322 323 322 322 323 321 320 319 315 313 313 310 312 317 319 317 317 315 314 314 314 314 314 314 312 310 307 307 307 306 306 308 311 316 318 318 318 316 314 313 313 313 313 312 311 309 309 309 308 307 307 308 309 308 307 306 306 307
321 321 321 322 323 324 323 322 322 320 320 318 314 312 312 309 310 316 318 318 317 314 312 313 314 314 314 314 312 310 308 307 305 304 304 304 305 310 313 314 314 312 311 311 311 311 310 308 306 305 305 305 304 303 304 306 307 307 308 307 308 307
320 321 321 321 324 325 324 322 321 320 319 316 312 312 311 310 314 317 318 319 317 313 310 311 313 313 314 313 312 311 310 308 307 305 304 303 303 304 305 306 306 306 307 309 310 310 307 305 303 303 304 304 304 305 307 308 308 308 308 308 308 309

ECMWFFLT2_925_thetae_027.txt.gz
Theta_e
337 336 337 337 336 336 336 335 335 336 336 336 338 334 327 328 331 332 333 333 332 333 333 332 332 331 329 328 328 328 330 330 330 330 329 328 325 325 326 326 326 325 325 325 325 325 326 327 328 330 331 332 332 334 333 332 332 330 331 330 330 331
337 337 338 338 337 337 336 336 337 337 337 337 337 334 329 331 333 332 333 333 332 333 332 332 332 332 331 329 328 329 330 330 330 330 331 330 328 327 326 326 326 325 325 326 326 325 326 326 328 330 331 332 332 333 333 333 332 331 331 330 330 329
338 337 338 339 338 337 337 337 338 338 337 337 337 334 331 333 334 333 333 333 333 333 332 332 332 331 330 330 328 329 329 329 329 329 329 330 329 329 328 327 327 326 326 326 326 326 326 326 327 330 332 332 332 332 333 333 332 331 331 330 330 328
337 337 338 339 339 338 338 338 338 338 337 338 337 334 332 333 334 334 334 333 334 334 334 334 333 332 330 330 329 328 329 329 329 328 327 328 329 329 330 329 328 327 327 326 325 325 327 327 326 330 332 331 331 332 333 333 332 332 331 330 329 327
337 337 338 340 339 339 340 339 338 338 338 338 338 335 333 334 334 334 334 334 334 334 335 334 334 333 331 331 331 330 330 329 329 328 327 327 327 327 329 330 329 328 328 326 325 324 326 327 326 329 332 331 331 332 332 332 332 332 331 330 329 327
339 339 339 339 339 340 340 339 339 339 338 338 338 335 333 334 334 333 335 335 335 335 335 335 334 334 332 332 332 332 330 328 328 328 327 326 326 327 327 328 328 329 328 327 325 324 325 325 326 328 331 332 331 331 331 331 331 332 330 329 329 327
339 339 339 339 339 340 340 339 339 339 339 338 337 335 332 334 335 335 335 335 335 335 335 335 334 334 334 333 332 332 331 329 328 327 326 326 327 328 329 328 328 328 327 327 327 326 326 326 326 327 330 331 331 331 331 331 331 331 330 329 328 327
337 337 337 338 340 339 338 337 339 338 338 335 334 333 332 332 334 335 335 335 334 335 335 335 334 333 334 334 332 332 331 330 329 327 326 326 327 328 331 330 330 328 328 327 328 328 328 328 327 327 329 331 332 331 331 331 331 330 330 329 329 327
335 336 336 337 339 338 338 338 338 336 334 333 331 331 332 332 333 335 335 334 334 335 335 334 332 331 332 334 333 331 331 332 330 329 327 327 328 329 331 332 331 331 329 328 329 329 330 329 327 327 328 329 331 331 331 331 330 330 330 329 329 327
334 334 334 336 337 337 338 338 337 334 331 331 330 331 333 332 334 336 334 332 334 334 333 332 332 332 333 333 333 333 333 333 332 331 330 330 330 330 331 331 332 332 330 330 330 329 330 330 328 328 327 328 330 331 331 332 331 331 330 329 328 327
331 330 331 333 335 335 337 337 337 336 334 332 330 331 332 333 335 334 331 331 334 334 332 330 330 332 334 334 334 334 334 334 333 332 333 332 331 331 331 331 331 332 331 331 330 330 330 331 330 328 327 327 329 331 330 331 331 330 330 329 328 327
329 328 329 331 332 332 333 335 336 336 336 334 332 332 332 334 336 333 331 333 334 334 332 331 330 332 333 334 335 335 335 334 334 333 333 333 331 331 330 330 330 331 330 329 329 330 330 330 330 329 327 327 328 329 329 330 332 331 330 329 329 328
328 328 330 331 330 329 331 334 335 334 334 334 334 332 332 334 334 331 332 333 334 333 333 333 332 332 333 334 335 335 334 334 333 332 332 332 332 331 330 330 330 331 330 329 329 330 330 330 330 329 328 327 327 327 328 329 331 331 331 330 329 329
328 328 331 332 331 329 332 334 333 332 332 334 334 332 333 334 333 332 333 333 333 334 334 334 334 334 333 333 334 334 334 334 333 332 332 332 332 332 331 330 331 331 331 330 331 331 331 332 331 330 329 328 327 327 327 328 330 331 331 331 330 330
333 330 329 330 331 332 334 334 334 333 334 336 335 334 335 334 334 334 333 333 334 334 334 334 334 335 334 333 334 333 333 333 332 332 333 333 333 332 331 331 331 331 331 331 332 331 332 332 331 330 330 329 328 327 326 327 329 330 330 331 330 330
337 334 331 330 333 335 336 335 336 336 336 337 336 336 336 335 334 334 332 332 333 334 334 333 333 334 334 334 333 332 331 331 331 332 333 333 332 332 331 331 331 331 331 331 331 331 330 331 330 330 329 329 328 327 327 326 327 329 330 330 331 331
338 336 333 333 335 337 338 338 337 337 338 337 336 336 335 335 334 333 333 332 333 334 334 333 332 333 333 332 331 332 330 330 331 331 332 333 333 333 332 331 331 331 330 331 330 329 330 331 331 330 329 329 328 327 327 327 327 328 329 329 330 330
338 337 335 335 337 338 339 339 338 337 337 336 336 335 334 335 333 332 333 332 332 333 333 333 331 331 331 330 331 331 330 330 331 331 332 333 333 333 332 332 332 331 329 330 329 330 332 331 330 330 329 329 328 328 328 328 328 328 328 329 329 330
339 339 338 338 338 339 339 338 338 336 335 335 334 333 332 333 332 332 331 331 332 332 332 332 331 330 330 330 330 330 329 330 331 332 332 332 333 333 332 332 332 331 329 329 330 331 332 331 330 329 329 328 327 327 327 327 327 327 328 328 329 329
339 340 340 340 340 339 337 336 335 334 334 333 332 331 331 331 331 331 331 331 332 332 332 331 330 330 330 330 330 329 330 330 331 332 332 332 332 332 332 332 332 331 330 330 330 331 332 330 330 329 328 326 326 326 326 327 326 326 327 327 327 328
340 341 341 341 339 337 335 334 333 333 333 333 332 331 329 329 330 330 331 331 332 332 331 331 330 330 330 330 330 330 330 331 331 331 332 332 332 332 332 332 331 331 331 331 330 330 330 329 328 328 329 328 327 327 326 327 326 326 326 325 326 327
340 340 340 340 338 336 334 332 333 333 332 331 330 329 327 327 329 329 330 331 331 331 330 331 330 329 330 330 330 331 330 330 330 331 331 331 331 332 332 332 331 330 331 331 330 329 328 328 326 326 329 328 328 328 327 327 328 327 326 324 325 326
340 339 339 339 337 335 333 332 332 331 330 328 327 327 327 327 328 329 329 329 329 329 329 330 330 329 329 329 330 330 329 329 329 329 330 330 330 331 331 331 330 330 331 330 329 328 327 327 325 325 327 328 328 329 328 328 328 328 328 327 326 326
339 339 338 339 337 334 332 332 330 329 327 326 326 326 326 326 326 326 326 326 327 327 327 327 328 328 328 327 327 327 328 328 328 329 329 329 330 330 330 330 330 330 330 330 329 328 326 325 325 325 326 326 326 327 328 328 328 328 328 327 327 327
338 339 338 338 336 333 332 330 328 327 327 326 326 326 326 325 324 323 323 322 322 324 324 325 325 327 327 325 324 324 325 326 327 328 329 329 329 329 329 330 330 330 329 330 329 328 327 325 325 325 326 326 326 327 328 328 328 328 327 327 327 327
336 337 338 337 334 332 331 329 327 327 327 326 326 325 325 323 322 322 321 320 318 319 322 323 323 325 325 323 321 322 322 323 325 327 328 329 329 329 329 329 329 329 329 329 328 328 328 325 325 325 324 325 326 327 328 327 327 327 326 326 325 324
334 336 337 335 332 330 329 327 326 325 325 325 325 324 323 322 322 321 320 318 317 319 321 322 321 323 322 321 321 322 323 323 325 325 326 327 328 328 329 329 329 329 329 328 328 328 328 326 326 325 323 323 323 324 326 328 327 327 326 323 319 318
333 335 335 332 330 330 328 326 325 324 324 324 323 322 322 322 322 321 320 319 319 320 321 321 321 322 322 321 321 323 324 324 324 324 325 326 327 327 328 328 328 328 328 328 328 328 327 327 327 326 324 324 324 323 324 326 327 328 327 321 317 316
332 333 332 330 330 329 328 326 325 325 324 323 322 322 321 322 321 320 319 319 320 320 320 320 321 321 321 321 321 323 324 324 323 323 324 324 324 325 326 327 328 328 328 328 327 327 327 327 328 328 326 327 327 326 326 325 325 327 326 322 319 317
329 330 330 329 329 329 327 326 325 324 323 322 321 321 321 320 320 319 319 319 320 319 319 319 320 320 321 321 320 321 324 324 323 323 323 322 322 322 324 326 327 327 327 327 326 326 327 327 327 327 327 328 328 327 327 327 325 325 324 322 320 317
327 328 329 329 328 327 327 326 324 323 323 322 321 321 320 319 319 319 318 319 319 319 319 319 319 320 321 321 320 321 323 324 323 323 322 322 322 321 321 323 324 325 325 325 325 325 325 325 325 326 327 327 325 325 326 326 325 323 323 321 318 317
325 325 326 326 327 327 326 325 324 323 323 322 321 319 318 318 319 319 318 318 319 318 318 318 319 320 321 321 320 321 322 323 322 322 321 320 319 320 321 321 321 322 323 324 324 325 325 325 325 325 323 320 319 320 320 319 319 320 321 320 317 317
322 322 323 325 325 326 325 324 323 323 323 321 319 318 317 318 319 319 318 318 318 317 317 318 319 321 320 320 320 320 321 321 320 320 318 317 318 320 320 319 318 318 319 320 321 322 323 324 324 321 317 315 315 316 314 312 313 314 316 317 317 316
320 321 323 323 323 323 323 324 323 323 323 320 318 316 314 315 317 318 318 317 317 316 317 318 319 318 317 315 315 315 316 317 316 316 315 316 319 320 318 317 317 316 316 317 317 318 319 319 318 316 314 314 313 312 310 310 311 311 312 313 314 315
322 323 323 323 323 323 323 323 323 323 321 319 318 314 312 312 311 314 316 316 316 315 315 316 316 314 313 313 311 310 311 311 310 310 312 317 319 318 316 316 316 315 314 314 314 314 314 314 313 313 312 311 310 310 309 308 309 309 310 311 313 314
325 324 324 323 323 323 323 323 322 322 320 319 316 312 312 311 309 313 317 317 316 314 313 314 314 313 313 313 311 309 309 308 306 305 308 314 317 316 315 315 314 313 313 312 312 311 310 309 308 307 307 306 307 309 307 307 307 307 307 308 310 312
325 324 324 324 324 323 324 324 322 321 320 319 315 311 312 311 310 314 317 317 316 313 311 312 314 314 314 313 312 309 308 307 306 304 304 309 313 314 314 313 312 311 311 310 308 307 306 305 305 304 303 303 307 308 307 307 308 307 307 308 309 310

ECMWFFLT2_925_thetae_030.txt.gz
Theta_e
341 342 340 340 343 343 341 340 339 338 338 338 334 327 328 331 333 333 333 333 334 337 337 334 334 332 330 330 330 329 329 329 329 327 326 327 326 326 327 327 326 325 326 326 325 325 324 326 329 331 332 333 333 335 336 337 335 335 334 334 334 330
343 341 341 340 342 342 340 339 339 339 339 338 333 329 333 335 335 335 333 335 339 341 339 338 337 335 334 334 330 329 331 331 331 329 327 326 326 326 326 326 325 325 326 325 326 328 327 327 330 331 332 332 334 336 336 336 335 335 334 334 333 328
342 341 341 341 341 341 340 339 339 340 339 337 333 333 336 338 337 336 337 340 341 340 339 339 337 336 337 335 331 331 331 331 331 331 329 328 327 327 326 325 325 324 325 326 328 329 328 328 330 331 332 333 335 336 336 336 334 334 334 334 333 327
341 342 342 342 341 340 340 340 340 340 338 336 335 336 338 338 338 338 339 340 340 340 339 339 337 335 336 335 332 330 330 330 330 329 329 330 329 328 328 327 325 324 327 329 329 329 328 328 330 332 333 334 335 336 336 336 334 334 333 334 332 326
341 341 342 343 341 340 340 340 340 338 337 336 336 337 338 339 339 338 339 339 339 340 339 338 336 335 336 336 334 331 331 331 331 330 328 331 332 330 331 331 329 328 330 330 329 330 329 329 330 332 333 334 335 335 336 335 334 334 334 334 330 326
341 341 342 341 340 339 339 339 338 337 337 338 336 337 338 338 338 337 338 337 337 339 339 339 338 337 337 337 336 335 334 333 333 332 330 332 332 331 332 333 332 331 332 330 329 329 329 330 330 331 332 334 336 336 335 334 334 334 334 335 329 325
341 340 339 337 336 338 338 337 337 337 336 337 337 335 335 336 336 335 335 335 335 335 337 338 338 338 337 338 338 337 336 334 334 332 331 332 332 332 332 332 332 332 331 329 329 329 328 329 330 331 331 333 335 335 335 334 334 334 334 334 329 325
340 339 336 334 334 336 336 336 337 338 337 337 336 334 333 335 334 333 334 335 333 333 334 335 337 338 337 338 338 336 336 334 333 332 331 331 332 333 333 332 332 331 330 329 329 329 328 329 330 331 331 332 334 335 335 334 335 335 334 334 331 326
338 338 336 336 335 336 337 337 337 338 337 336 337 336 334 332 333 335 336 334 333 333 335 335 336 337 337 337 337 336 335 334 334 333 332 332 333 334 334 334 333 331 330 329 329 329 328 328 329 330 331 331 333 334 335 335 335 335 334 334 333 327
337 338 337 337 337 337 338 337 337 336 334 333 335 336 332 332 335 336 335 333 334 334 334 334 335 336 337 337 336 336 335 335 335 334 333 333 334 335 335 334 333 332 330 329 329 329 329 328 328 329 330 330 331 332 334 334 333 334 334 335 334 328
336 336 336 337 337 337 338 337 336 334 332 331 334 334 331 334 336 334 333 334 335 335 335 335 335 336 336 336 335 335 336 335 335 334 334 334 335 335 335 335 334 332 330 329 330 329 328 328 328 328 329 329 330 331 332 333 332 333 334 334 334 332
336 335 335 337 336 336 336 336 335 333 332 332 334 334 332 334 335 332 334 335 335 335 335 335 334 335 337 335 334 335 335 335 335 335 335 336 336 335 335 335 334 332 331 331 330 330 329 328 328 328 327 328 329 329 330 332 333 333 334 334 334 335
335 334 335 337 335 335 335 336 334 331 333 333 333 333 333 335 334 332 334 335 334 334 334 333 332 333 335 335 334 335 334 334 334 334 335 335 335 335 334 334 334 333 331 332 332 330 329 329 328 328 328 328 328 328 328 330 333 334 334 334 333 333
335 334 336 335 335 335 335 336 334 331 333 335 334 333 334 335 333 333 334 333 333 333 333 332 333 334 334 334 335 335 334 334 334 334 334 333 334 334 333 333 334 333 331 331 333 331 330 330 329 329 329 329 328 329 329 329 331 334 334 333 333 332
335 336 336 335 336 336 336 337 335 333 334 335 335 334 335 334 333 334 333 333 333 333 333 333 333 333 334 334 335 335 334 334 334 334 334 334 335 334 334 334 333 334 333 332 332 332 332 332 331 330 331 330 330 330 330 330 331 331 332 333 332 333
336 336 336 336 336 337 337 337 336 335 336 336 335 334 335 334 334 334 333 333 333 333 334 333 333 333 334 334 334 335 335 334 334 334 335 336 335 335 335 335 335 334 333 332 332 332 332 333 332 332 332 333 332 332 331 331 332 330 331 332 332 334
337 337 336 335 336 337 337 337 337 336 337 336 335 335 335 334 334 334 333 334 334 334 334 334 333 333 334 335 334 334 334 334 334 334 336 335 335 335 335 335 335 335 334 333 333 333 334 334 334 334 334 334 333 333 333 333 332 332 331 332 331 332
338 337 336 335 336 338 338 337 337 337 337 337 335 334 334 334 334 334 333 334 334 334 334 334 333 333 334 334 334 334 334 334 334 334 335 334 334 334 334 334 334 334 334 334 333 333 333 334 334 334 334 334 334 333 334 334 333 333 332 331 330 331
338 337 336 336 337 337 337 337 337 337 336 336 334 333 333 333 332 333 333 333 334 334 334 334 333 333 333 334 333 333 333 333 333 334 334 332 332 332 333 333 334 334 334 334 334 333 334 334 335 334 334 334 334 333 333 333 333 333 332 331 330 330
338 338 337 338 337 336 337 336 335 335 335 335 333 333 332 332 332 331 332 332 333 334 334 334 333 333 333 333 334 333 333 333 333 333 332 331 331 332 331 332 334 335 334 334 334 335 335 334 334 334 334 333 332 332 332 331 332 332 332 332 331 329
339 338 338 338 337 337 336 336 335 334 334 333 332 332 331 331 331 331 331 331 332 334 334 333 333 333 334 334 333 334 334 333 333 333 332 332 332 332 332 333 334 335 334 334 334 334 334 334 334 334 333 333 332 332 331 331 331 331 331 331 331 330
340 338 338 338 337 337 336 334 334 333 332 331 331 331 331 330 329 330 331 331 331 332 332 333 333 333 333 333 334 334 333 333 333 333 333 332 332 333 333 334 334 333 333 333 333 333 333 333 333 333 334 333 332 332 331 331 331 330 330 330 330 330
341 338 338 338 337 336 335 334 334 333 332 330 330 330 330 330 329 329 330 330 330 330 331 332 332 332 333 333 333 333 332 332 332 332 332 333 332 333 333 333 334 333 332 333 333 332 332 333 332 332 333 332 332 332 331 331 331 330 330 330 330 330
340 339 338 338 337 335 334 334 334 334 333 330 330 329 329 330 329 329 329 330 330 330 330 330 330 331 331 332 331 331 331 331 331 331 332 332 332 332 332 333 333 332 332 331 332 331 332 332 333 332 331 329 330 330 330 330 330 330 330 330 330 330
339 339 338 338 337 334 334 333 333 333 332 330 329 328 327 327 327 326 326 327 328 329 329 329 329 329 329 329 328 328 328 329 329 330 331 332 332 332 332 332 332 331 330 330 329 330 331 331 332 332 331 329 329 329 330 330 329 329 330 329 329 329
340 338 338 337 335 334 334 334 332 331 330 329 328 327 326 326 326 325 324 323 325 327 328 328 328 328 328 327 326 326 327 327 327 328 329 330 330 331 331 332 331 330 329 329 328 330 331 331 330 331 331 331 330 329 329 329 329 328 328 328 327 327
340 339 338 336 335 335 335 333 332 330 329 329 328 327 326 326 325 324 323 322 324 326 327 326 327 327 326 326 326 327 327 327 327 327 328 328 328 329 330 331 331 331 330 330 330 330 331 330 330 330 330 330 329 328 329 330 328 327 327 326 325 325
340 339 338 336 335 335 334 333 332 330 328 328 327 327 327 326 325 323 322 323 324 325 326 326 326 326 325 326 326 327 327 327 327 327 327 327 328 328 329 329 330 330 331 331 331 331 330 330 330 330 329 330 329 327 329 330 327 327 328 325 323 322
339 339 338 336 335 335 333 333 332 330 329 327 327 327 325 325 324 323 323 324 324 324 325 326 326 326 326 326 326 326 326 327 326 326 325 325 327 327 327 328 328 329 331 331 331 331 330 330 330 330 330 330 329 328 329 329 327 327 327 325 323 321
337 337 337 336 335 334 334 332 331 331 330 328 327 326 324 324 323 323 323 324 324 323 324 324 325 326 325 325 325 326 326 326 326 325 325 325 326 326 326 326 327 328 329 329 329 330 330 330 330 330 330 330 329 328 328 328 328 327 326 325 323 321
335 335 336 336 335 334 333 332 331 331 330 328 327 326 324 323 323 322 322 323 323 323 323 323 324 325 325 325 325 325 325 325 325 324 325 324 324 325 325 325 326 327 327 328 328 328 329 329 329 329 329 328 327 327 327 327 326 326 326 326 324 322
330 332 334 334 335 334 333 332 331 331 330 329 328 326 323 323 322 321 321 322 322 322 322 323 324 324 325 325 324 323 324 324 324 324 323 323 322 323 323 324 325 325 325 326 327 328 328 329 329 329 328 327 326 327 326 325 326 325 326 325 324 323
327 328 330 332 334 333 332 332 331 331 330 328 327 325 323 322 322 322 321 321 320 320 321 323 324 324 324 324 322 322 323 323 322 322 321 322 322 322 322 322 323 324 324 324 325 326 327 328 327 326 325 324 323 324 323 322 323 324 324 323 322 321
327 327 327 330 332 332 332 331 331 332 330 328 327 324 323 323 322 322 321 321 320 320 321 323 323 323 322 321 320 320 321 320 320 320 321 322 322 322 321 320 321 322 321 322 323 324 324 325 324 323 322 321 320 319 317 317 317 318 319 319 319 319
327 326 327 329 330 330 331 330 330 331 329 327 326 324 323 323 322 321 321 320 320 320 321 322 322 321 320 319 318 317 317 318 318 319 321 322 321 321 320 318 318 319 319 320 321 321 322 322 322 321 320 318 316 314 314 313 313 313 314 316 317 317
325 326 327 327 326 327 328 329 329 331 329 327 325 324 324 322 321 321 320 320 319 319 320 320 320 319 320 318 316 315 315 314 316 318 320 320 320 319 319 317 316 317 317 317 318 318 318 318 318 318 317 315 313 313 313 313 313 313 313 313 315 315
325 325 326 325 324 325 327 327 328 330 328 327 326 325 322 321 320 321 321 319 318 319 319 319 319 319 319 318 316 315 314 312 313 315 317 317 317 317 317 316 316 316 316 315 315 315 315 315 315 315 316 315 314 314 315 315 314 314 314 313 313 314

ECMWFFLT2_925_thetae_033.txt.gz
Theta_e
344 344 341 340 340 340 338 338 337 337 339 338 335 331 327 328 328 329 330 330 330 332 330 331 333 332 331 331 332 331 328 325 325 324 324 325 326 326 326 325 325 325 325 326 327 328 328 328 329 331 332 334 332 334 338 337 335 334 333 333 334 329
342 343 340 339 340 339 338 338 339 338 337 334 329 327 329 331 332 334 334 334 336 337 335 334 336 334 333 333 331 329 328 327 327 325 324 324 324 325 326 325 325 324 323 324 325 327 328 328 328 330 332 333 333 336 337 336 335 334 333 334 333 327
340 340 338 338 340 340 338 338 338 336 335 333 331 331 334 335 336 336 335 336 338 337 337 337 336 335 335 335 330 328 329 329 328 327 325 324 324 326 325 326 325 323 323 324 328 330 330 329 329 329 332 333 334 336 337 335 335 334 333 334 332 326
340 339 339 340 340 339 338 336 335 336 336 334 333 335 336 335 336 335 334 336 336 336 336 336 336 336 336 335 332 331 331 331 330 329 327 326 326 326 325 325 324 323 326 328 331 332 330 331 330 330 332 334 335 337 338 335 334 333 332 334 332 325
338 337 338 340 338 337 337 336 335 336 336 335 334 335 335 334 334 334 334 336 335 335 335 336 335 335 335 335 334 333 333 332 332 330 328 330 332 328 328 329 326 325 330 331 331 331 330 330 331 332 333 335 335 337 336 334 334 334 333 334 330 323
338 337 338 339 337 336 337 337 337 337 336 336 336 336 334 334 334 335 336 337 338 337 336 336 334 334 334 335 334 334 334 333 334 332 330 333 335 331 331 333 331 330 332 332 331 330 330 330 331 332 334 335 336 337 335 334 335 334 333 333 327 323
339 339 339 340 339 339 338 338 338 337 336 336 336 334 334 334 334 335 336 337 338 337 337 336 335 334 335 334 333 332 334 333 334 333 331 333 334 332 332 333 333 333 332 331 331 329 329 330 331 331 333 335 336 336 335 334 335 333 334 333 325 322
340 340 340 341 341 340 339 339 338 336 336 336 334 333 333 333 333 334 336 337 337 337 337 336 335 335 334 334 332 332 333 332 333 333 332 332 333 332 332 333 334 333 332 331 330 329 329 329 330 331 332 334 335 335 335 334 335 333 334 333 327 322
340 340 339 340 339 339 338 338 338 337 337 336 335 334 331 329 332 334 335 336 335 336 337 336 335 335 333 333 333 333 333 332 332 332 332 332 333 333 334 334 333 333 331 330 330 329 329 328 329 331 331 332 334 335 334 334 334 334 333 334 331 324
340 339 338 339 339 338 339 338 338 338 336 336 336 334 331 330 332 335 336 335 335 335 337 337 335 335 334 334 333 334 334 333 333 333 333 332 333 334 334 333 333 333 331 331 330 329 329 328 328 331 332 332 334 333 333 334 334 334 333 333 333 325
340 339 339 340 340 340 340 338 337 337 337 337 336 334 334 333 333 336 337 337 336 335 337 338 336 335 335 334 334 334 335 334 333 334 333 333 333 333 333 333 333 332 331 330 330 329 328 328 328 330 331 331 332 333 333 333 332 333 333 333 333 328
340 340 339 339 339 340 339 336 336 337 338 337 336 336 336 336 336 337 337 337 337 335 335 335 334 334 334 334 334 334 335 333 333 333 332 334 334 333 333 333 333 331 332 331 330 330 328 328 328 328 329 330 330 332 332 332 331 332 332 333 334 332
339 340 338 338 338 338 338 336 336 337 338 337 336 336 336 337 337 336 336 336 335 335 335 334 333 333 334 335 334 334 334 335 334 333 332 334 334 333 333 333 333 332 331 331 331 329 328 329 329 328 328 329 329 330 331 331 332 332 332 331 333 333
339 339 338 338 337 337 337 337 337 337 337 337 336 336 337 337 336 335 336 336 335 336 336 335 335 334 335 335 334 334 334 335 335 334 333 333 334 334 333 332 332 332 330 331 331 330 329 330 329 328 329 329 328 329 329 329 331 331 332 331 331 333
338 338 337 338 338 337 338 337 337 337 337 338 337 337 337 337 336 335 336 336 336 336 336 336 336 335 335 335 334 334 334 335 335 334 333 333 333 333 333 332 331 331 330 330 330 330 331 331 330 330 329 330 330 329 329 329 330 331 331 330 330 331
338 338 338 338 339 338 338 338 337 338 338 338 337 337 337 336 336 336 336 336 337 336 336 336 336 335 336 335 334 333 333 335 334 333 333 333 332 332 333 333 331 330 331 331 330 330 331 331 331 332 331 332 332 330 329 329 329 330 331 330 330 330
337 337 338 339 340 339 339 339 338 338 338 338 337 336 336 335 335 335 335 336 336 336 336 336 336 336 335 334 333 332 332 333 333 333 333 332 332 333 333 333 333 332 332 331 329 329 330 331 333 334 333 334 333 332 332 332 330 330 330 330 330 331
338 337 338 339 339 340 341 340 338 338 337 337 336 335 334 334 335 334 334 336 336 336 336 336 335 335 335 334 333 331 331 332 332 333 333 332 332 333 333 334 334 333 333 333 331 330 331 331 332 334 334 335 334 333 334 333 331 330 331 330 331 331
339 338 338 339 340 341 341 339 338 337 337 336 335 334 333 333 333 333 334 335 336 336 336 336 336 336 336 334 334 332 331 332 332 333 333 333 332 333 333 333 333 333 333 334 333 331 330 331 331 332 334 335 335 334 334 334 332 331 332 332 331 331
339 338 338 339 340 340 339 338 337 336 335 335 333 334 333 332 332 331 332 333 334 336 335 336 335 335 335 334 334 333 332 331 332 333 334 334 334 333 333 333 333 332 332 332 332 331 331 331 331 331 333 334 335 334 334 334 333 332 332 333 332 331
338 336 337 339 339 337 337 336 335 334 333 333 332 331 331 331 331 332 332 332 333 335 335 335 335 335 335 335 334 334 332 332 333 333 334 335 334 334 333 333 333 332 331 331 331 331 331 331 330 331 333 333 333 332 333 333 333 333 333 333 332 332
338 336 337 338 337 336 334 333 333 332 331 330 329 330 329 330 331 332 333 332 333 334 334 334 334 335 335 335 333 334 333 333 333 332 333 334 334 334 332 332 332 331 330 331 331 330 330 331 331 332 332 332 331 330 331 331 330 331 332 332 332 332
338 339 338 337 336 335 334 333 332 331 330 330 331 331 330 328 329 331 332 332 332 332 333 333 333 334 335 335 334 334 333 334 334 333 332 333 333 333 332 331 330 330 330 330 330 329 330 333 333 331 330 330 330 330 331 330 330 331 330 330 331 330
339 339 338 335 335 335 335 335 333 332 331 331 331 330 330 329 328 328 330 331 331 332 331 331 331 331 332 334 333 333 333 333 334 334 332 332 332 332 332 331 330 331 330 327 328 331 333 334 333 332 330 329 330 331 331 332 331 331 329 329 330 329
339 338 337 334 335 336 335 335 333 332 331 328 328 328 329 329 328 327 327 329 329 330 330 330 329 329 330 331 331 330 330 331 332 333 333 332 331 331 331 330 331 331 330 328 329 332 333 333 332 332 331 329 330 331 330 331 331 330 329 328 328 327
338 336 335 333 334 335 334 334 334 331 328 327 327 327 327 327 327 326 325 326 327 328 329 329 329 328 328 328 328 327 327 328 329 330 331 332 331 331 331 330 331 332 331 330 332 333 332 332 333 333 331 330 330 329 329 330 330 329 329 328 327 327
337 335 334 332 332 334 334 333 332 329 327 328 328 327 326 326 326 325 324 325 326 327 327 328 328 327 326 325 327 328 328 327 327 327 328 329 330 332 331 330 330 331 331 331 332 332 331 332 332 332 332 331 330 329 329 330 329 328 328 328 327 326
335 333 333 330 331 334 334 332 331 329 329 329 328 327 327 326 325 324 324 324 326 327 326 326 327 327 326 326 327 328 328 328 327 326 326 327 328 330 331 331 331 330 330 331 332 329 329 331 331 331 332 331 329 328 329 330 329 328 328 328 326 326
330 330 331 329 331 334 333 332 331 329 329 328 327 326 325 324 324 324 326 326 326 327 327 327 327 326 326 326 327 327 327 327 327 326 326 326 327 328 329 330 331 331 331 331 331 330 329 331 330 329 331 331 330 329 328 329 329 328 328 327 324 324
327 329 331 330 331 333 332 332 331 329 328 326 325 325 324 324 324 324 326 326 326 326 326 326 326 326 326 326 326 326 327 327 327 326 326 326 326 327 328 329 329 331 332 331 331 332 332 331 328 329 330 330 329 329 328 329 328 328 328 327 325 324
327 330 333 332 331 331 332 332 331 329 328 326 326 325 324 324 324 324 324 325 326 326 326 326 326 326 327 326 326 326 326 326 326 326 326 326 326 326 326 327 328 329 330 330 331 331 331 330 329 330 330 329 329 328 328 328 327 326 327 328 326 324
331 331 333 333 332 332 332 331 330 330 329 328 327 325 324 324 324 324 324 324 324 324 325 325 326 326 327 326 325 325 324 325 325 325 325 324 325 325 325 326 327 327 328 329 330 330 331 331 330 330 329 328 328 327 326 326 326 326 326 326 326 323
332 332 333 333 332 332 332 330 330 330 329 328 326 324 323 323 323 323 324 324 323 323 324 325 326 326 325 324 325 325 325 324 324 324 323 323 323 323 324 325 326 326 326 327 327 329 330 330 329 328 327 326 326 325 324 324 325 325 325 324 324 322
333 333 333 333 332 332 332 331 330 330 329 328 325 323 323 322 323 323 322 323 322 322 324 325 326 325 323 323 323 324 323 322 322 323 323 324 322 322 322 323 324 324 325 325 326 327 327 327 326 325 324 323 322 321 320 321 321 322 322 322 321 320
333 333 334 333 334 334 333 331 331 331 329 328 326 323 323 323 324 322 322 322 322 323 325 325 324 323 321 320 321 321 320 321 322 322 323 322 322 322 320 321 322 322 322 323 324 324 325 325 323 321 320 318 317 316 316 316 316 318 318 319 319 318
333 334 335 335 335 335 333 331 332 331 330 329 326 324 323 324 324 323 322 323 322 323 324 324 323 321 319 318 319 319 319 320 322 322 322 321 321 320 318 318 319 319 319 320 320 321 321 321 320 318 317 316 315 316 315 315 315 316 316 317 317 316
333 333 335 335 334 333 333 332 331 330 330 329 327 325 325 325 324 323 322 322 322 323 323 323 321 319 318 318 317 317 317 319 320 320 320 320 319 318 318 318 318 318 318 317 317 317 317 318 317 317 317 316 316 317 317 317 316 316 316 315 315 316

ECMWFFLT2_925_thetae_036.txt.gz
Theta_e
339 338 337 336 332 330 331 333 336 335 335 335 336 336 336 334 333 333 332 332 331 332 332 332 332 332 332 333 333 335 331 325 324 322 322 324 325 325 324 324 324 324 325 328 330 331 331 330 329 332 333 332 334 336 337 336 334 334 335 334 332 328
339 339 339 337 333 332 333 334 333 333 335 335 334 332 331 330 330 331 330 330 330 331 331 330 331 330 331 333 334 333 329 325 326 324 323 324 324 324 324 324 323 323 324 326 329 330 330 330 329 332 333 331 333 336 338 335 333 334 334 333 330 327
339 339 338 336 334 334 334 333 332 335 337 334 331 329 330 331 331 330 329 331 333 333 332 332 333 331 332 335 336 331 327 328 328 327 325 324 324 325 325 324 323 323 323 324 326 328 329 328 328 331 333 331 332 336 337 335 333 334 334 332 329 327
339 338 338 337 336 335 334 334 335 336 334 330 329 331 331 331 331 330 331 334 335 334 334 335 333 333 335 336 335 330 328 329 329 328 326 325 325 326 325 324 323 323 324 325 327 329 330 330 328 330 332 332 333 337 337 335 333 334 334 332 329 326
338 338 338 338 337 336 336 336 336 336 331 329 332 334 332 331 331 331 334 336 335 335 336 335 334 334 335 335 334 331 331 331 331 331 329 329 330 331 329 327 326 324 327 330 330 331 333 332 330 330 331 332 334 337 337 335 333 334 334 332 328 324
339 338 338 337 338 338 338 337 337 335 332 334 336 334 332 333 333 333 335 337 335 335 336 336 335 335 335 334 334 334 335 334 333 334 332 332 333 334 332 332 331 329 330 332 332 332 332 332 331 331 332 334 335 336 337 335 333 334 333 331 326 321
339 339 338 338 339 339 338 337 337 336 336 336 336 334 335 334 333 334 335 337 335 334 335 336 335 335 334 334 334 335 335 335 335 334 332 332 332 333 332 333 333 331 331 333 332 331 330 331 331 332 332 334 336 336 336 334 335 335 332 328 322 320
339 339 339 339 339 339 338 337 337 337 337 336 335 336 337 335 334 335 335 336 336 335 335 335 334 334 334 334 334 334 334 334 334 333 333 332 331 331 331 331 332 331 331 332 331 330 329 329 330 331 332 334 335 335 334 333 335 335 331 324 321 322
339 340 340 339 338 338 338 338 337 336 336 336 336 337 336 334 335 336 336 335 335 335 334 334 334 334 335 334 334 333 332 332 333 332 332 331 330 331 331 331 331 331 331 330 330 329 329 329 329 331 331 333 335 334 333 333 335 335 331 325 322 323
340 340 339 340 339 339 339 338 337 335 335 336 336 336 335 335 336 337 335 334 333 333 332 332 332 334 335 335 334 333 333 333 332 332 332 332 332 332 332 332 332 332 331 330 329 327 328 328 328 330 330 331 333 334 332 331 334 334 333 328 323 323
340 339 339 339 340 339 340 338 337 336 335 336 336 335 334 334 336 336 335 335 333 331 331 332 332 334 335 335 335 335 335 335 334 334 334 334 334 333 333 333 332 332 331 330 328 327 329 329 328 329 330 331 331 333 330 330 332 333 334 331 325 323
339 339 339 338 339 340 340 338 337 336 335 335 334 334 335 334 336 336 335 335 334 333 333 334 334 335 335 336 336 335 335 335 334 334 334 335 334 333 333 333 333 332 330 329 328 328 329 329 329 328 330 331 331 332 330 329 330 332 333 330 326 324
339 339 339 339 340 340 340 339 338 337 336 335 334 334 336 336 337 336 335 336 336 335 334 334 335 335 335 335 334 334 334 334 334 334 334 333 332 333 333 332 333 332 330 330 329 328 328 329 329 328 329 330 330 330 329 329 329 331 333 330 327 326
338 338 339 338 339 339 339 338 338 338 337 336 336 336 337 337 338 337 336 336 335 335 335 334 335 335 334 334 334 334 333 334 335 334 333 332 332 332 332 332 331 331 331 330 329 329 329 329 328 328 329 329 329 330 329 329 329 331 332 331 330 330
339 338 338 338 338 338 338 337 337 338 338 338 337 337 338 337 337 336 336 336 335 335 335 335 335 335 334 335 335 334 334 334 335 334 333 332 332 333 332 332 330 331 331 330 330 330 329 329 329 329 329 329 329 329 329 329 330 331 331 331 331 331
339 337 338 337 337 338 337 337 337 338 338 338 338 337 338 337 337 336 336 336 336 336 335 335 334 334 335 335 334 334 333 334 335 334 333 333 333 333 333 332 331 331 330 330 330 330 329 330 330 330 329 329 330 330 330 330 330 330 331 332 331 331
339 337 337 337 337 337 337 337 337 338 339 339 338 337 337 337 337 337 336 335 336 336 336 336 334 334 334 334 333 333 333 334 334 334 333 333 333 333 334 333 332 331 330 331 330 329 330 330 330 330 330 330 330 331 331 332 331 330 330 331 331 330
338 338 338 337 337 338 338 338 338 338 339 338 337 337 336 336 336 336 336 336 336 336 335 335 334 334 334 333 334 333 333 333 333 333 333 332 333 332 333 334 333 332 332 333 332 330 330 331 330 330 330 330 330 330 331 332 332 331 331 330 331 330
338 339 339 338 339 339 338 338 338 339 338 338 336 335 334 334 334 334 335 335 336 336 335 335 334 334 333 332 333 332 332 332 332 333 333 331 332 333 332 333 333 334 334 334 334 332 330 330 331 329 329 329 330 330 331 331 331 331 331 331 332 331
339 339 339 339 340 339 339 338 338 338 338 336 335 334 333 332 332 333 333 335 336 335 335 336 335 333 332 332 332 331 331 332 332 333 333 331 332 333 332 333 333 333 333 333 333 332 330 330 331 330 329 329 330 330 331 331 331 331 331 330 331 331
339 340 339 339 339 338 338 338 337 337 335 334 333 333 332 331 332 332 333 334 335 336 335 335 335 334 333 332 331 331 331 332 332 332 332 331 331 332 332 333 333 332 333 332 332 331 330 330 330 330 330 329 330 331 331 332 332 330 329 329 330 329
338 340 339 339 338 336 336 336 335 334 332 331 331 331 331 331 333 333 333 334 334 334 334 335 334 334 333 332 331 331 331 332 332 331 331 331 332 332 332 333 333 331 331 331 331 330 330 330 329 329 330 330 331 332 331 331 331 331 329 329 329 329
337 337 338 338 336 334 334 333 333 332 330 329 329 329 329 330 332 333 333 334 333 333 333 333 334 333 332 333 332 332 333 332 332 332 332 332 333 332 332 333 333 332 331 330 330 331 331 330 329 328 329 331 333 333 331 330 331 331 330 330 329 329
337 337 338 336 335 334 333 332 332 331 331 332 331 330 328 328 331 332 332 333 332 332 332 332 332 332 332 333 332 333 333 333 332 332 332 331 332 332 332 332 332 331 331 330 331 331 331 331 329 329 330 331 331 332 332 331 331 330 329 330 329 327
338 338 336 335 334 334 334 333 332 331 332 331 330 328 328 328 328 329 331 332 331 331 330 330 330 331 331 331 332 332 332 332 332 332 332 331 332 332 332 332 331 331 331 330 330 330 331 331 330 330 331 332 331 332 333 331 330 331 328 329 328 327
338 337 335 334 334 334 334 333 333 331 328 328 327 329 329 328 326 326 328 329 329 330 329 328 329 329 329 329 329 329 329 330 331 331 331 331 332 332 331 331 331 330 330 330 330 329 330 331 330 329 330 331 331 332 331 330 331 332 329 329 328 327
338 336 332 330 330 332 333 334 333 329 326 327 328 328 328 327 326 325 325 327 328 329 329 329 328 327 326 327 327 327 328 328 329 329 330 330 331 331 331 331 330 330 331 330 330 329 328 328 328 328 330 330 330 330 330 330 331 331 330 329 327 326
336 333 329 326 327 331 333 333 332 328 326 328 329 327 327 327 325 324 325 326 326 327 327 327 327 326 326 327 328 328 328 327 327 327 328 328 329 330 331 331 331 331 331 330 330 329 328 327 327 328 329 328 329 331 331 330 330 329 329 329 327 326
334 332 329 328 329 332 333 332 331 329 328 329 328 327 328 326 324 324 325 326 326 327 327 327 326 326 326 327 328 328 328 327 326 326 326 327 329 330 330 330 331 331 331 330 330 330 328 327 327 327 327 327 329 330 330 330 329 328 328 328 327 326
333 332 329 327 331 333 331 331 331 330 329 328 327 326 325 324 324 326 327 327 327 327 328 327 327 326 326 327 327 327 327 327 326 326 326 327 328 329 330 330 330 330 330 330 330 329 329 329 328 327 327 328 328 329 329 329 328 328 328 328 327 325
330 328 325 325 331 332 329 330 331 330 328 326 325 324 324 324 325 327 328 328 327 327 327 327 327 327 327 326 326 326 326 326 326 326 326 326 326 328 329 329 330 330 330 330 330 330 329 329 328 328 327 327 326 327 327 327 328 328 328 328 327 325
328 325 322 323 329 331 330 331 331 329 326 325 325 325 324 324 324 325 326 326 326 327 327 327 327 327 326 326 326 325 326 326 325 325 325 325 325 326 328 328 328 329 329 330 330 330 330 329 329 328 328 326 325 327 326 326 327 327 327 327 325 324
329 326 321 322 328 330 331 331 331 329 326 326 326 325 325 325 324 324 325 325 325 326 326 326 326 326 325 325 325 325 325 325 324 324 324 324 324 325 326 327 327 327 328 329 329 328 328 328 327 327 327 326 326 326 326 325 325 326 327 325 324 323
329 327 324 325 328 330 331 331 331 329 327 328 326 324 325 324 324 325 325 324 324 324 326 326 325 325 324 325 325 324 323 323 324 324 323 323 323 324 325 325 326 326 326 327 327 327 325 325 324 323 323 323 323 324 324 324 323 325 324 323 324 322
327 327 327 328 329 331 332 331 331 329 328 327 325 324 324 324 324 323 323 323 323 325 325 326 325 323 323 323 323 322 322 323 323 323 323 322 322 323 323 324 324 325 325 326 326 325 323 321 320 319 318 317 318 319 321 320 321 322 321 321 322 319
327 328 330 330 330 332 332 331 331 329 328 326 324 323 323 324 324 322 323 323 324 325 326 324 323 320 320 321 321 321 323 323 322 322 322 321 320 320 321 321 321 322 323 323 322 322 320 318 317 316 316 316 315 315 317 316 316 318 319 319 318 316
329 329 332 332 332 333 332 331 330 329 328 327 324 323 324 324 324 323 323 323 324 325 325 323 320 319 319 319 319 321 321 322 321 321 320 319 318 319 319 319 319 319 319 318 319 319 318 317 317 316 316 317 317 316 316 315 315 316 316 316 317 317

ECMWFFLT2_925_thetae_042.txt.gz
Theta_e
343 342 342 342 343 343 342 340 336 332 332 335 338 339 339 339 338 338 338 338 338 337 336 335 334 333 332 333 331 325 323 323 321 320 320 320 322 323 325 326 326 326 327 328 329 329 329 329 330 333 333 332 334 336 335 333 332 329 329 328 327 328
343 343 343 343 343 342 341 338 334 334 337 338 339 339 338 337 336 335 335 336 337 336 334 333 334 334 333 333 330 325 325 324 322 322 321 321 322 323 324 324 324 324 325 327 329 329 329 329 331 333 332 332 334 336 335 333 331 330 329 328 328 328
342 343 342 342 342 341 339 336 334 337 339 339 338 337 336 335 333 333 332 334 336 335 333 332 333 334 333 333 329 326 327 325 324 323 323 323 323 324 324 324 323 323 324 327 330 330 329 328 330 332 331 331 333 335 334 332 331 330 329 328 328 328
342 342 342 342 340 339 336 334 336 338 338 338 337 334 334 333 332 332 331 332 334 333 333 332 333 334 334 332 328 327 328 327 326 325 324 324 324 324 324 324 324 323 324 326 328 328 328 328 329 331 330 330 333 335 333 331 330 330 329 329 328 327
342 341 341 339 338 336 335 335 337 337 337 336 334 333 333 332 331 331 330 331 332 333 333 333 334 335 334 331 328 329 329 328 327 325 325 326 325 326 325 325 325 325 326 327 327 329 330 330 329 330 330 330 332 335 334 331 331 330 329 328 327 327
340 340 338 336 335 335 335 336 336 336 336 334 332 332 333 331 331 330 329 331 332 333 333 332 334 334 333 330 329 329 329 329 328 325 327 329 329 329 329 328 327 328 329 329 330 331 331 330 330 331 330 330 332 335 334 331 330 329 329 327 327 329
338 336 335 334 333 334 335 335 335 335 335 333 330 331 333 331 330 329 330 332 332 333 333 332 333 334 332 330 329 330 330 330 330 329 329 330 330 331 331 330 330 330 330 330 331 331 330 329 330 330 330 330 332 334 334 331 330 329 328 328 329 330
336 333 332 331 330 332 334 334 334 334 334 333 330 332 334 331 330 329 332 334 333 333 334 333 333 334 333 332 331 332 332 331 331 332 331 331 330 331 331 331 331 330 331 331 330 330 328 329 330 331 330 330 333 334 333 332 331 329 328 329 330 331
334 332 330 330 329 331 333 334 334 334 332 331 330 332 333 331 330 330 333 335 333 333 334 333 333 334 334 333 332 332 333 332 332 332 331 331 331 330 330 331 330 330 331 330 329 329 328 328 329 331 330 331 334 333 332 332 330 328 328 329 330 330
335 332 330 331 331 332 333 334 335 333 330 329 330 332 333 331 330 331 334 335 334 333 332 333 333 334 334 334 333 333 333 333 332 332 331 331 331 330 331 332 331 331 331 330 328 328 328 328 328 330 330 331 333 332 332 331 328 327 327 329 329 329
336 334 332 332 332 333 333 334 335 333 330 331 332 333 332 331 330 332 333 334 334 333 332 333 334 334 333 333 333 333 333 332 332 331 331 331 331 331 332 332 331 331 331 329 328 328 328 328 327 328 328 330 332 331 331 330 326 325 326 328 328 329
338 336 334 333 333 333 333 334 335 332 330 335 335 333 332 331 331 332 333 333 333 332 333 333 333 333 333 333 333 333 333 332 332 332 332 332 332 332 333 332 332 331 330 329 328 328 328 328 327 327 327 329 330 331 331 328 324 323 325 327 328 329
338 337 335 335 334 334 334 335 335 331 331 335 336 333 332 332 332 332 333 332 332 332 333 333 332 332 333 333 333 333 333 333 333 333 333 333 332 333 332 332 332 330 329 329 328 328 328 328 328 328 328 329 330 331 331 328 325 324 325 326 327 329
338 337 336 335 335 334 334 335 334 333 334 335 335 332 331 332 332 333 333 332 332 332 333 333 332 332 332 333 333 333 333 334 333 333 333 333 333 333 332 331 331 330 329 329 328 328 328 327 328 328 329 330 332 332 332 331 328 325 324 325 327 329
338 338 337 336 336 335 335 335 335 335 336 335 333 332 332 332 332 333 332 332 332 332 332 332 332 332 332 332 333 332 332 333 334 334 333 333 333 333 332 331 330 330 329 329 328 328 327 327 328 328 329 329 331 332 333 333 331 326 324 325 327 329
339 339 338 337 336 335 335 335 336 336 335 334 333 333 332 332 332 333 333 333 333 333 332 332 332 333 332 332 332 332 333 333 334 334 334 333 333 333 332 331 330 330 329 329 329 328 328 327 327 328 328 328 329 330 331 332 331 327 325 325 326 326
339 339 338 338 336 336 336 335 336 335 334 333 333 333 332 332 334 335 334 334 334 333 333 333 333 333 332 331 332 333 333 333 334 334 334 333 333 333 332 331 330 330 329 329 329 328 328 328 328 328 328 328 328 329 330 331 331 328 326 326 326 326
339 338 338 337 337 337 337 336 335 334 333 333 333 334 334 335 336 336 335 334 334 333 333 333 333 333 333 332 332 333 333 333 333 334 333 333 333 333 332 331 330 330 329 329 329 329 329 329 328 328 328 328 328 329 330 331 331 330 329 329 327 326
339 338 337 336 336 336 337 336 335 335 334 335 335 336 336 336 336 335 334 334 335 334 333 334 333 333 333 333 333 333 333 332 332 333 332 332 333 333 332 332 331 330 330 329 329 329 329 329 329 329 329 329 329 329 330 331 332 332 332 331 330 328
338 338 337 336 336 335 335 337 336 336 336 336 337 337 337 336 335 335 334 334 334 334 334 334 334 334 334 334 334 333 333 332 332 332 332 331 332 332 332 333 333 332 330 329 329 329 329 329 330 329 329 329 330 330 330 331 331 332 332 332 331 330
337 338 337 336 336 335 335 337 337 337 337 337 337 337 336 335 335 334 334 334 334 334 334 334 334 334 334 334 334 333 333 332 332 332 332 331 331 332 333 333 334 333 331 329 329 329 329 330 330 330 330 329 329 330 330 330 331 331 332 332 331 331
337 338 336 335 335 335 336 337 337 337 337 337 336 335 335 335 334 334 334 334 334 334 334 333 334 333 333 333 333 332 332 332 332 332 332 331 331 332 332 333 334 333 331 329 328 329 329 330 329 329 329 328 328 328 329 329 330 330 330 331 331 331
337 337 336 335 335 335 336 337 337 336 336 336 335 334 334 334 333 333 334 334 334 333 333 333 333 333 332 332 331 331 331 331 331 332 331 331 332 332 332 333 333 333 330 329 328 328 329 329 329 329 328 329 328 328 328 328 328 328 327 328 329 330
336 336 335 335 335 336 337 337 336 336 335 335 334 333 333 333 333 333 333 333 333 333 333 332 332 332 332 331 330 330 330 331 331 331 331 331 332 332 332 333 333 333 331 329 328 328 328 329 330 330 329 329 327 327 330 328 326 327 327 327 328 329
335 335 335 334 335 337 337 337 336 335 333 333 333 333 333 333 333 333 333 332 332 332 332 332 331 331 332 331 330 330 330 330 331 331 331 331 332 332 332 333 332 332 331 330 329 329 329 329 329 329 329 329 329 331 332 328 326 327 327 327 328 328
336 335 334 334 335 337 337 337 336 334 332 332 333 332 333 333 332 332 332 331 331 331 330 330 330 331 332 331 330 330 330 331 331 331 331 331 331 332 332 333 332 331 330 330 329 329 329 329 329 329 328 329 330 331 329 327 328 328 326 327 327 328
336 335 335 335 336 337 337 336 335 332 331 331 331 331 331 330 329 330 331 331 330 330 329 328 327 328 329 329 328 329 330 330 330 331 331 331 331 331 332 332 332 331 330 330 329 329 329 329 329 329 329 329 328 328 327 327 328 327 327 327 327 327
335 335 336 336 336 336 336 335 332 331 331 330 330 330 331 330 328 329 330 331 331 330 329 327 326 326 326 326 326 327 328 328 330 330 330 330 330 331 331 332 332 330 330 329 329 329 329 329 329 329 329 330 329 327 327 326 326 326 327 327 326 327
335 335 334 335 335 335 334 332 330 330 330 330 330 331 331 331 329 329 329 329 329 329 328 326 326 327 327 327 327 326 327 328 329 329 329 329 330 330 330 331 330 330 330 329 329 330 330 329 329 329 329 330 329 327 327 326 325 325 325 327 327 326
336 334 332 332 333 332 331 330 329 328 328 328 328 329 331 331 329 329 328 328 327 326 326 325 326 327 327 327 327 326 326 327 328 328 329 329 329 330 330 331 330 330 331 330 329 329 329 329 329 329 330 330 329 327 326 325 324 324 324 325 326 325
335 333 332 331 331 331 329 329 328 327 327 326 326 327 329 329 327 327 327 327 326 326 326 325 326 326 327 327 326 326 326 326 328 328 328 329 329 330 330 330 330 330 330 329 329 329 328 328 328 329 330 329 328 327 327 325 324 324 323 322 324 325
334 333 332 330 330 329 327 327 327 327 327 327 325 325 326 326 325 325 326 327 326 326 326 326 326 326 327 326 325 326 326 326 327 327 327 328 329 329 329 330 330 329 330 329 329 328 327 327 327 329 330 329 328 327 326 326 324 324 323 322 324 323
334 333 333 331 328 326 325 325 327 328 327 325 325 325 325 324 323 324 326 327 326 326 326 326 326 326 326 326 325 325 325 325 326 326 326 326 327 328 328 328 329 329 329 328 328 328 327 327 327 328 329 328 327 327 326 325 323 323 323 322 322 320
333 332 332 331 328 326 326 327 327 327 326 325 325 324 323 323 324 326 326 326 326 325 325 326 326 325 325 325 325 325 324 324 324 325 326 326 327 327 327 328 328 328 328 327 327 327 326 327 327 328 329 328 327 326 326 325 323 322 322 322 321 319
332 331 331 331 329 328 329 329 327 327 326 326 325 323 323 325 327 327 326 326 326 325 325 325 325 325 324 325 325 324 324 323 323 325 326 326 326 327 327 328 328 328 328 328 327 327 326 326 326 326 327 328 327 326 326 325 323 322 322 321 320 319
331 329 330 331 330 329 330 329 326 327 326 325 324 322 324 327 326 326 326 326 326 325 325 324 325 324 324 324 324 323 324 323 322 324 325 325 326 326 327 328 328 328 327 327 327 326 326 326 326 325 325 326 327 326 325 325 323 322 321 320 320 319
330 329 329 331 330 329 330 329 326 326 325 323 322 321 324 325 324 324 325 326 326 325 325 325 324 324 323 324 324 323 323 322 321 323 324 325 325 325 326 326 326 325 323 322 322 322 322 323 323 324 325 325 325 326 326 325 324 322 321 321 319 318

ECMWFFLT2_925_thetae_045.txt.gz
Theta_e
341 340 341 341 341 342 342 339 335 333 333 336 338 338 339 339 339 339 338 337 335 334 334 333 332 332 330 326 322 321 321 323 327 329 329 330 330 330 328 326 326 325 324 325 326 327 328 328 330 332 333 335 335 334 333 331 329 328 328 328 328 328
341 341 341 341 342 342 341 338 333 333 337 339 339 340 339 339 339 338 338 337 335 334 333 332 331 332 330 325 323 322 321 322 326 327 326 326 327 326 324 324 325 325 326 327 327 328 328 328 329 331 333 336 335 334 333 330 330 328 328 328 328 329
342 342 341 342 342 342 340 336 332 335 339 340 340 340 339 339 338 337 337 337 336 334 332 333 332 332 330 325 325 324 322 323 324 324 324 325 326 325 324 323 324 325 327 328 329 329 328 328 329 330 333 335 335 334 333 331 330 328 328 328 328 329
342 342 342 342 342 342 339 334 334 337 339 340 340 339 338 337 336 335 335 336 335 333 332 333 333 334 330 326 326 325 323 323 323 324 325 325 326 326 324 323 324 326 328 329 329 329 328 328 329 329 332 335 334 334 333 330 329 328 328 328 328 329
342 341 341 342 342 341 337 334 336 339 339 339 338 337 335 335 334 333 334 335 334 332 331 332 334 335 331 327 327 327 325 324 324 325 325 326 327 327 325 324 324 325 327 328 328 328 329 329 330 329 331 334 335 333 332 330 329 329 329 329 329 330
341 340 341 341 341 340 336 335 338 339 338 337 336 334 334 333 332 332 332 333 332 331 330 332 335 334 330 327 327 328 326 325 325 328 329 330 331 329 328 327 327 327 328 328 329 330 330 330 330 330 331 333 335 333 331 330 329 329 329 329 329 329
340 339 341 342 340 338 336 336 339 338 337 336 334 333 333 332 330 330 330 331 330 330 330 330 333 333 330 328 328 328 327 327 328 330 331 331 331 330 329 328 328 329 329 330 331 330 329 329 329 330 330 332 334 333 330 330 329 329 329 329 329 327
339 339 341 341 338 337 337 337 338 337 336 335 333 332 332 331 329 329 329 330 330 330 330 330 331 331 329 328 328 329 329 330 331 331 331 331 330 330 330 329 329 329 330 331 330 329 329 329 329 329 330 331 334 333 330 330 329 329 329 329 329 327
339 340 340 338 336 336 337 337 336 336 335 333 332 331 331 329 328 328 329 331 331 331 331 331 332 332 330 329 330 331 331 331 332 332 332 331 330 330 331 330 330 330 330 330 330 328 328 328 330 330 329 331 333 333 330 330 329 329 330 330 329 328
339 339 338 336 335 336 337 335 335 335 334 332 331 330 329 327 327 328 330 333 332 332 333 332 333 333 332 331 331 332 332 331 331 332 331 331 330 330 331 330 330 330 330 330 328 328 328 328 330 330 330 331 333 333 330 330 329 329 330 331 330 328
339 338 336 336 336 335 335 334 334 334 334 332 330 328 328 328 328 328 330 333 333 332 333 333 333 334 333 332 332 332 332 332 331 331 331 330 330 331 331 331 331 330 329 328 328 328 328 328 330 330 330 332 333 332 331 329 329 330 330 331 329 328
337 336 335 335 334 334 333 333 333 333 333 332 329 327 328 329 329 329 331 333 333 333 333 334 334 333 333 333 333 333 332 332 331 331 331 331 331 331 331 331 331 330 329 327 327 328 327 328 328 330 330 332 332 332 331 329 329 329 329 329 329 328
335 334 333 333 332 332 332 332 333 333 333 331 329 329 329 329 329 329 331 333 334 333 333 334 334 333 333 333 333 333 332 332 331 331 332 332 332 332 331 331 331 330 328 327 327 328 327 327 327 328 330 331 331 331 330 328 327 327 328 328 328 329
334 334 332 332 332 331 331 332 332 333 333 331 332 333 331 330 330 330 331 333 334 334 334 334 333 333 333 333 333 333 333 332 332 332 333 332 331 331 331 331 330 329 328 327 327 327 327 327 327 328 329 330 331 330 328 326 325 326 327 329 329 329
335 334 333 332 332 331 332 332 332 334 333 331 333 334 332 331 331 331 332 333 334 333 334 333 333 333 332 333 333 333 333 333 332 333 333 332 331 331 331 330 330 329 328 327 327 328 328 328 328 328 329 330 331 330 327 324 325 327 328 330 330 330
336 336 334 333 332 331 333 332 332 334 332 331 333 334 333 331 331 332 333 333 333 333 333 333 333 332 332 333 334 333 333 333 333 332 332 332 332 331 330 330 330 329 328 327 327 328 328 328 329 330 331 331 332 331 327 325 326 328 329 330 330 330
337 337 335 334 333 333 333 332 333 334 332 332 334 334 332 332 332 332 333 333 333 333 333 333 332 333 333 333 333 333 333 333 333 332 332 332 332 331 330 330 330 329 328 327 327 327 328 328 328 330 331 332 332 332 329 326 325 326 329 330 330 331
337 337 336 335 334 334 334 333 334 334 333 334 335 334 332 332 332 332 333 333 333 333 333 333 333 334 334 333 333 333 333 333 333 333 332 332 332 332 330 329 329 329 328 328 327 327 328 328 328 328 330 330 331 331 330 327 325 325 327 328 329 329
337 337 336 336 336 335 335 335 335 335 335 336 335 333 333 332 332 332 334 335 334 334 333 333 333 333 333 333 333 333 333 333 333 333 332 332 332 332 331 330 329 329 328 328 327 327 328 328 328 328 329 330 330 331 331 329 327 326 327 327 327 327
338 337 336 336 337 336 336 337 337 336 336 336 334 333 333 334 333 334 335 335 334 334 334 334 333 333 333 333 333 333 333 333 333 333 332 332 332 332 331 330 329 329 329 328 328 328 328 328 328 328 329 329 330 330 331 331 330 329 330 329 328 327
338 337 336 337 337 336 336 337 337 337 336 335 334 333 334 335 335 335 335 334 334 334 334 334 334 334 334 334 333 333 333 333 333 333 332 332 332 332 331 330 329 329 329 328 329 329 328 328 328 328 328 328 329 330 330 331 330 331 331 330 329 330
338 337 336 336 336 336 336 336 336 336 335 334 334 334 335 336 336 335 334 334 334 334 334 334 334 334 334 334 334 333 333 332 332 332 331 331 332 332 332 331 330 329 329 329 329 329 329 328 328 328 327 327 328 329 329 329 330 330 330 329 329 330
338 337 336 336 335 335 335 335 336 335 334 335 335 335 336 336 336 334 334 334 333 334 334 334 334 334 334 333 333 333 332 332 332 332 331 331 332 332 333 332 331 329 329 329 329 329 329 328 329 328 328 329 328 328 329 328 328 329 328 328 328 329
338 337 336 336 335 335 335 335 336 336 335 336 336 336 336 335 334 334 334 334 333 334 333 333 334 333 333 332 332 332 331 331 331 332 331 331 332 332 333 332 331 330 329 329 328 329 329 328 329 329 329 328 325 327 331 328 326 327 327 327 327 328
338 337 336 336 335 335 335 336 336 336 336 336 335 335 335 335 334 333 333 333 333 333 333 333 333 332 332 331 330 330 330 330 331 331 331 330 331 332 332 332 332 331 329 329 328 328 329 328 329 329 328 327 327 329 331 328 326 327 327 327 327 327
337 337 337 336 335 335 335 336 336 336 336 335 334 334 334 334 333 333 333 333 333 332 332 332 332 332 331 330 330 330 330 330 331 330 330 331 331 331 332 332 332 331 330 329 328 328 328 328 329 329 327 327 329 330 328 327 328 327 326 326 327 327
337 337 337 336 335 335 335 337 336 336 335 334 333 333 333 333 332 332 332 332 331 331 330 330 331 331 331 330 330 330 330 330 331 330 330 331 331 330 331 332 332 331 330 329 329 328 328 328 329 329 328 327 328 328 327 327 327 327 327 327 327 327
337 337 337 336 335 335 336 337 336 335 335 334 333 333 333 333 332 331 331 330 330 329 327 327 328 328 328 329 329 329 330 330 331 331 330 331 330 330 331 331 331 331 331 329 329 328 328 329 329 329 328 328 329 327 326 326 326 326 327 328 327 327
336 335 335 335 335 336 337 336 336 335 333 332 332 332 332 331 331 330 329 330 330 328 326 325 326 326 326 326 327 327 328 329 330 330 330 330 330 330 331 330 330 330 330 329 329 329 329 328 329 329 328 329 328 326 326 326 325 325 325 327 328 326
335 334 334 334 334 335 336 336 335 334 332 331 331 331 330 330 329 330 329 330 330 329 327 326 326 326 326 326 326 326 326 327 328 329 329 329 330 330 330 330 330 329 329 329 329 329 329 329 328 328 328 329 327 326 325 324 324 325 324 325 326 325
335 334 334 334 334 335 336 336 335 334 332 330 330 329 329 330 329 329 329 329 330 329 327 326 326 327 327 326 326 326 326 326 327 328 328 328 329 330 330 331 330 329 329 329 329 329 329 329 329 328 328 329 328 326 325 325 324 325 324 323 325 324
334 334 334 334 335 336 336 335 335 334 332 330 329 329 330 330 329 328 328 327 328 327 325 325 326 327 326 326 326 326 325 326 327 327 327 327 328 329 330 330 330 330 330 329 329 329 329 329 329 329 329 329 328 327 326 326 325 325 325 324 324 323
334 334 334 333 335 335 334 334 333 332 331 329 329 330 330 330 328 327 327 326 326 325 325 325 326 327 326 325 325 325 325 326 326 326 326 327 328 329 329 329 329 330 330 330 329 329 328 327 328 329 329 329 328 327 326 326 325 325 325 324 324 320
334 334 333 332 332 331 331 332 331 331 330 329 328 328 329 329 328 327 326 326 325 325 325 325 326 326 325 325 325 325 326 326 325 325 325 327 328 328 328 328 329 329 329 329 329 328 327 327 327 328 329 329 328 327 326 325 325 324 324 324 323 319
334 333 332 331 329 328 328 328 329 329 328 327 326 326 328 328 327 326 326 326 325 325 325 325 325 325 325 325 325 324 325 325 325 325 324 325 326 327 328 328 328 328 328 328 328 328 327 326 327 328 329 329 328 327 326 325 324 324 323 323 322 319
333 332 331 329 327 327 327 327 327 327 326 326 325 325 326 326 324 324 325 326 326 325 325 325 325 325 325 325 324 324 324 324 324 325 324 323 324 326 327 328 328 328 327 327 327 327 326 326 327 327 328 329 328 327 326 325 323 323 323 322 321 319
329 330 331 329 328 328 327 326 327 327 326 325 324 325 325 324 324 325 325 325 325 325 324 324 324 324 324 324 324 323 323 323 323 326 325 322 323 325 327 328 328 327 327 327 327 326 325 325 326 327 328 328 327 326 326 325 323 322 322 320 318 317

ECMWFFLT2_925_thetae_048.txt.gz
Theta_e
340 339 340 340 341 341 337 334 333 332 334 337 338 338 338 337 337 337 337 337 336 337 336 334 332 329 327 325 327 330 331 332 333 333 333 332 332 331 329 330 330 328 327 328 328 329 331 333 335 335 335 334 333 332 330 329 328 327 327 327 328 329
340 339 340 341 341 341 338 335 334 334 336 338 339 339 338 338 338 337 336 334 334 334 332 331 329 326 323 321 325 330 330 330 331 331 330 329 328 326 325 326 327 327 326 328 328 328 331 332 334 336 335 334 333 333 330 329 328 327 328 328 329 330
341 339 340 341 340 340 338 336 334 336 338 339 339 339 338 338 338 336 334 333 332 331 331 331 329 324 322 321 323 328 329 329 328 327 325 324 324 323 323 324 325 326 326 328 328 328 330 332 334 335 335 334 333 332 330 329 328 328 328 328 329 330
341 339 341 341 341 340 338 335 335 338 339 339 340 339 338 338 337 337 335 333 332 331 331 332 330 326 324 323 322 324 326 326 325 324 323 323 323 323 323 324 325 326 327 328 328 328 329 331 334 335 335 335 334 332 330 328 328 328 328 328 329 330
339 339 340 341 341 340 337 334 337 339 340 339 339 339 338 338 337 337 336 334 332 331 331 332 332 328 325 325 322 323 324 323 324 324 324 324 323 323 323 324 325 326 327 328 328 328 328 330 333 334 334 334 334 332 330 328 328 328 328 329 330 330
339 339 341 340 340 339 335 335 339 340 340 340 338 338 337 336 336 336 335 334 331 330 331 332 333 330 326 326 324 324 324 324 325 326 327 327 325 325 325 326 326 327 327 328 328 328 329 330 332 334 334 334 334 332 330 328 328 328 328 329 330 331
339 340 341 339 340 339 335 336 340 339 339 339 338 337 335 333 333 334 333 332 331 329 330 333 334 331 327 327 326 325 325 327 329 330 331 330 327 326 327 327 328 328 329 330 329 329 329 329 331 333 334 334 333 332 330 329 328 328 328 329 331 330
340 340 340 339 340 338 335 337 339 339 339 337 336 335 332 331 331 331 330 331 330 329 329 332 333 331 328 328 328 327 328 329 331 331 331 330 329 328 328 328 329 329 330 330 329 329 329 329 330 331 333 334 333 332 329 328 328 328 328 329 329 329
340 339 339 339 340 337 335 338 339 338 338 336 334 333 331 330 329 329 329 329 329 329 329 330 332 331 328 328 329 329 330 331 332 331 330 330 330 330 329 329 329 329 330 330 328 328 328 329 329 330 331 333 333 331 329 329 329 328 328 328 328 329
339 338 339 339 340 337 336 338 338 338 337 335 333 332 331 329 328 328 329 329 329 329 329 329 331 330 329 329 329 330 331 331 331 331 331 330 330 330 330 329 330 330 329 329 328 327 329 329 329 329 330 332 333 331 329 329 328 328 328 328 328 330
338 337 338 340 339 337 336 338 337 337 336 334 332 332 330 328 327 327 329 331 330 330 331 331 332 331 330 329 330 331 331 331 331 331 330 330 330 331 331 330 330 330 329 329 328 327 329 330 330 329 330 332 333 331 330 329 328 329 329 329 329 330
337 336 338 340 338 336 336 336 336 335 335 333 331 331 329 327 326 327 330 332 332 332 333 333 332 332 331 331 331 331 331 332 331 331 330 330 331 331 331 330 329 329 328 328 328 327 328 330 330 329 331 332 333 331 329 329 329 330 330 329 329 330
337 336 338 339 337 335 335 335 335 335 334 332 330 329 328 327 327 328 331 333 333 333 333 333 333 333 332 331 332 332 332 332 331 331 330 331 331 331 330 330 329 328 327 327 327 327 328 329 330 331 331 333 333 331 329 330 330 330 331 330 329 330
338 337 338 338 335 334 335 334 334 334 334 332 329 329 328 328 328 329 331 333 334 333 333 333 333 333 332 332 332 332 332 332 331 331 331 331 331 331 331 330 329 328 327 327 327 327 327 329 330 331 332 332 332 330 331 330 328 329 331 330 329 330
337 337 337 336 334 334 334 333 333 333 333 331 329 328 329 329 329 329 331 332 333 333 333 333 333 333 332 332 332 332 332 331 331 332 332 331 331 331 330 330 329 328 327 327 327 327 327 328 329 330 331 331 331 331 332 330 327 329 330 330 330 329
336 336 336 336 334 333 332 332 332 333 332 330 330 331 331 331 330 330 331 332 333 333 332 333 333 333 332 332 332 332 332 332 332 332 332 331 331 331 330 330 329 327 327 327 327 327 327 328 329 330 330 331 331 331 331 329 327 328 329 329 330 329
335 335 335 335 334 332 331 331 332 333 332 330 332 334 333 332 331 331 332 332 333 332 332 332 333 332 332 332 332 332 332 332 332 332 331 331 331 331 330 330 329 328 327 327 327 328 328 328 329 330 331 331 331 331 331 329 327 327 329 330 330 330
334 334 334 334 332 332 331 332 332 333 333 331 332 335 333 332 332 332 333 333 333 332 332 332 332 332 332 332 333 332 332 332 332 332 331 331 331 331 330 329 329 328 327 327 328 328 328 329 329 330 331 331 331 331 330 328 327 329 330 330 329 330
335 334 334 333 332 332 332 333 333 334 333 331 332 334 333 332 332 332 333 333 333 332 332 332 332 332 332 332 332 332 332 332 332 332 331 331 331 331 330 329 329 328 327 327 327 328 328 329 329 330 330 331 330 330 329 327 328 330 330 329 329 329
335 334 334 334 334 333 334 334 334 334 334 333 333 334 333 332 332 332 334 334 334 333 333 333 332 332 332 332 332 332 332 332 332 332 332 331 331 331 330 329 328 328 328 327 327 328 328 328 328 329 330 331 330 330 329 327 327 329 329 329 329 328
336 335 335 335 335 335 335 334 334 334 334 334 335 334 333 333 333 333 335 335 334 334 334 333 332 332 333 332 332 332 332 332 332 332 331 331 331 331 330 329 329 328 328 327 327 327 327 327 328 329 329 330 329 329 329 328 327 329 330 329 328 327
336 336 335 335 335 335 334 334 334 334 334 335 335 334 333 333 334 334 335 335 334 334 334 333 333 332 333 332 332 332 332 332 332 331 331 331 331 331 330 330 329 328 328 327 327 327 327 327 327 327 328 328 328 327 328 328 328 329 329 329 328 327
336 336 335 335 335 335 335 334 333 333 334 335 335 333 333 334 335 335 335 334 333 333 333 333 333 332 332 332 332 332 332 332 331 331 331 331 331 332 331 330 329 328 328 327 327 327 327 327 327 327 327 328 328 328 328 327 327 327 327 327 327 328
335 335 335 336 336 336 335 334 334 334 335 335 334 334 334 335 335 335 334 334 333 333 333 333 333 333 333 333 333 332 332 332 331 331 331 330 330 331 332 331 329 328 328 328 328 327 327 327 327 327 327 327 326 327 330 328 326 326 326 325 326 327
335 335 335 336 336 336 335 335 335 335 335 334 334 334 336 336 335 334 334 333 333 333 333 333 333 333 333 333 332 331 331 331 331 331 330 330 329 330 330 331 330 329 328 329 328 328 328 328 328 327 326 326 327 328 329 327 326 326 326 325 325 326
336 336 336 336 336 336 335 335 335 335 335 334 335 335 335 334 334 333 333 333 333 333 333 333 332 332 332 331 330 330 331 330 331 331 330 330 330 329 330 331 331 330 329 329 329 328 328 328 328 327 325 326 328 327 326 327 327 327 326 325 325 326
336 336 337 337 335 335 335 335 335 335 335 335 335 335 334 333 332 332 332 332 332 332 332 331 331 331 331 330 329 329 330 330 331 331 330 331 331 330 330 331 331 330 329 329 329 329 328 328 328 328 326 327 328 327 326 327 327 326 327 326 325 326
337 336 337 336 335 334 335 335 335 335 335 335 334 333 333 332 332 332 332 332 331 330 331 331 331 330 330 329 329 330 330 330 331 331 330 330 331 331 331 331 331 331 330 329 329 328 328 328 328 328 328 328 328 327 326 326 325 326 327 327 324 324
335 336 336 336 335 334 334 335 336 336 335 335 334 333 333 333 332 331 331 330 329 328 328 329 329 329 328 328 329 329 330 330 331 330 330 330 331 331 331 331 331 330 330 329 329 328 328 328 328 328 328 328 327 326 326 326 325 325 326 326 326 323
333 335 336 336 335 334 334 335 336 336 335 334 333 332 333 333 332 331 330 329 327 326 326 326 326 326 326 326 327 327 328 329 330 330 330 330 330 330 330 331 331 330 330 330 329 329 328 328 328 328 328 328 327 325 325 324 324 325 325 325 326 323
332 333 336 335 335 334 334 335 336 336 335 333 332 332 332 332 331 331 329 329 327 325 325 325 324 324 325 326 326 326 326 327 329 329 329 330 330 330 330 330 330 330 329 330 329 329 328 328 328 328 328 328 327 326 325 325 324 325 325 325 325 323
331 333 335 335 335 334 335 336 336 335 334 332 332 331 331 330 330 330 329 330 329 326 325 325 325 325 325 325 325 325 326 326 327 327 328 328 329 329 330 330 330 329 329 329 329 329 328 328 328 328 328 328 328 327 326 325 325 325 324 324 324 322
330 332 335 334 334 334 335 336 335 335 333 331 331 330 329 328 328 329 329 329 329 327 325 325 326 326 325 326 325 325 325 325 326 326 327 327 328 329 329 330 330 329 328 328 328 328 328 329 329 328 328 328 328 327 326 325 325 325 324 324 323 320
330 332 334 334 334 335 335 335 335 335 333 331 330 329 327 327 328 328 328 327 327 325 325 325 326 326 326 325 325 325 325 325 326 326 326 327 328 329 329 329 330 329 329 329 329 328 329 329 328 328 328 328 328 328 326 325 325 324 324 323 322 320
328 329 330 330 332 333 334 334 335 335 334 332 329 328 328 327 327 328 327 326 325 324 325 325 325 326 325 325 324 324 325 326 325 324 325 326 327 328 328 328 329 329 329 329 329 328 328 329 328 327 328 328 328 328 326 325 324 324 324 324 322 321
325 326 326 327 329 330 330 331 334 335 333 332 330 328 328 328 327 327 326 325 325 325 325 325 325 325 325 325 324 324 325 325 325 324 324 326 326 326 327 327 328 328 328 328 328 328 328 327 327 326 327 328 328 327 326 325 324 324 325 324 322 322
325 326 327 329 331 332 332 331 331 332 332 331 330 328 327 328 328 327 326 325 325 325 325 324 325 325 325 324 324 324 324 324 324 324 325 324 325 326 326 327 327 327 327 327 327 327 327 326 326 326 326 328 328 327 326 325 324 324 324 324 322 321